Syracuse, NY

7:52 AM EDT on April 22, 2018 (GMT -0400)
Syracuse Hancock International

Weather History for KSYR - October, 2013

Change the Weather History Date:

Thursday, October 17, 2013

  Actual Average Record
Temperature  
Mean Temperature 57 °F 50 °F  
Max Temperature 65 °F 60 °F 84 °F (1947)
Min Temperature 49 °F 41 °F 24 °F (1978)
Degree Days  
Heating Degree Days 8 15  
Month to date heating degree days 96 210  
Since 1 July heating degree days 274 377  
Cooling Degree Days 0 0  
Month to date cooling degree days 1 0  
Year to date cooling degree days 712 565  
Growing Degree Days 6 (Base 50)    
Moisture  
Dew Point 49 °F    
Average Humidity 73    
Maximum Humidity 93    
Minimum Humidity 52    
Precipitation  
Precipitation 0.56 in 0.11 in 1.42 in (1942)
Month to date precipitation 2.82 1.91  
Year to date precipitation 32.60 30.19  
Snow  
Snow 0.00 in 0.00 in 0.30 in (1972)
Month to date snowfall 0.0 0.0  
Since 1 July snowfall 0.0 0.0  
Since 1 September snowfall 0.0 0.0  
Snow Depth 0.00 in    
Sea Level Pressure  
Sea Level Pressure 29.79 in    
Wind  
Wind Speed 6 mph (WSW)    
Max Wind Speed 14 mph    
Max Gust Speed 18 mph    
Visibility 9 miles    
Events Fog , Rain    
T = Trace of Precipitation, MM = Missing Value Source: NWS Daily Summary

Daily Weather History Graph

Daily Weather History Graph

Search for Another Location

Airport or City:

Astronomy

Oct. 17, 2013 Rise Set
Actual Time 7:20 AM EDT 6:18 PM EDT
Civil Twilight 6:51 AM EDT 6:46 PM EDT
Nautical Twilight 6:18 AM EDT 7:19 PM EDT
Astronomical Twilight 5:46 AM EDT 7:52 PM EDT
Moon 5:31 PM EDT (10/17) 5:48 AM EDT (10/17)
Length of Visible Light 11h 54m
Length of Day
10h 57m
Waxing Gibbous, 98% of the Moon is Illuminated
Oct 17
Waxing Gibbous
Oct 18
Full
Oct 26
Last Quarter
Nov 3
New
Nov 10
First Quarter

Hourly Weather History & Observations

Time (EDT) Temp. Dew Point Humidity Pressure Visibility Wind Dir Wind Speed Gust Speed Precip Events Conditions
12:12 AM 60.8 °F 57.2 °F 88% 29.82 in 10.0 mi SW 9.2 mph - 0.01 in   Overcast
12:54 AM 59.0 °F 54.0 °F 83% 29.82 in 10.0 mi SSW 9.2 mph - 0.01 in   Overcast
1:54 AM 59.0 °F 53.1 °F 81% 29.83 in 10.0 mi SW 9.2 mph - N/A   Overcast
2:54 AM 57.9 °F 53.1 °F 84% 29.84 in 10.0 mi West 8.1 mph - N/A   Overcast
3:54 AM 55.9 °F 51.1 °F 84% 29.84 in 10.0 mi West 8.1 mph - N/A   Mostly Cloudy
4:54 AM 53.1 °F 48.9 °F 86% 29.86 in 10.0 mi SW 5.8 mph - N/A   Scattered Clouds
5:54 AM 52.0 °F 48.0 °F 86% 29.87 in 10.0 mi SW 5.8 mph - N/A   Partly Cloudy
6:54 AM 51.1 °F 46.9 °F 86% 29.87 in 10.0 mi Calm Calm - N/A   Partly Cloudy
7:54 AM 48.9 °F 46.9 °F 93% 29.88 in 9.0 mi Calm Calm - N/A Fog Patches of Fog
8:54 AM 55.9 °F 50.0 °F 80% 29.88 in 10.0 mi SW 6.9 mph - N/A   Scattered Clouds
9:54 AM 60.1 °F 48.0 °F 64% 29.88 in 10.0 mi WSW 10.4 mph - N/A   Scattered Clouds
10:54 AM 61.0 °F 48.0 °F 62% 29.87 in 10.0 mi SSW 10.4 mph - N/A   Mostly Cloudy
11:54 AM 60.1 °F 46.9 °F 62% 29.87 in 10.0 mi WSW 9.2 mph - N/A   Mostly Cloudy
12:54 PM 63.0 °F 46.9 °F 56% 29.84 in 10.0 mi WSW 9.2 mph - N/A   Mostly Cloudy
1:54 PM 62.1 °F 46.9 °F 58% 29.82 in 10.0 mi WSW 4.6 mph - N/A   Mostly Cloudy
2:54 PM 63.0 °F 46.0 °F 54% 29.80 in 10.0 mi West 6.9 mph - N/A   Mostly Cloudy
3:54 PM 63.0 °F 46.0 °F 54% 29.79 in 10.0 mi WSW 3.5 mph - N/A   Mostly Cloudy
4:54 PM 64.0 °F 46.9 °F 54% 29.75 in 10.0 mi Calm Calm - N/A   Mostly Cloudy
5:54 PM 61.0 °F 46.9 °F 60% 29.72 in 10.0 mi ENE 3.5 mph - N/A   Mostly Cloudy
6:54 PM 57.9 °F 46.9 °F 67% 29.68 in 10.0 mi East 6.9 mph - N/A   Overcast
7:54 PM 59.0 °F 48.0 °F 67% 29.70 in 10.0 mi Calm Calm - 0.00 in Rain Light Rain
8:54 PM 54.0 °F 51.1 °F 90% 29.70 in 5.0 mi Calm Calm - 0.17 in Rain Rain
9:39 PM 53.6 °F 51.8 °F 94% 29.73 in 2.5 mi WNW 5.8 mph - 0.21 in Rain Rain
9:54 PM 53.1 °F 52.0 °F 96% 29.70 in 3.0 mi North 5.8 mph - 0.29 in Rain Rain
10:19 PM 53.6 °F 51.8 °F 94% 29.72 in 9.0 mi NW 6.9 mph - 0.04 in Rain Light Rain
10:54 PM 53.1 °F 52.0 °F 96% 29.69 in 4.0 mi Calm Calm - 0.09 in Rain Light Rain
11:54 PM 52.0 °F 51.1 °F 97% 29.65 in 10.0 mi SE 8.1 mph - 0.01 in   Overcast